Tracking 27188 objects as of 1-Apr-2023
HD Live streaming from Space Station
objects crossing your sky now

COSMOS 1275 DEB

Track COSMOS 1275 DEB now!
10-day predictions


NORAD ID: 12728
Int'l Code: 1981-053BV
Perigee: 942.4 km
Apogee: 1,026.3 km
Inclination: 82.8 °
Period: 104.6 minutes
Semi major axis: 7355 km
RCS: 0.1199 m2 (medium)
Launch date: June 4, 1981
Source: Commonwealth of Independent States (former USSR) (CIS)
Launch site: PLESETSK MISSILE AND SPACE COMPLEX (PKMTR)

Note: This is SATELLITE DEBRIS
Your satellite tracking list
Your tracking list is empty




NASA's NSSDC Master Catalog

Two Line Element Set (TLE):
1 12728U 81053BV  23091.43963209  .00001150  00000-0  11517-2 0  9992
2 12728  82.8067 248.7558 0057059 238.7553 174.5371 13.76257346 76871
Source of the keplerian elements: AFSPC